Weather History for Taos, NM

Change the Weather History Date:

Thursday, October 3, 2013

  Actual Average Record
Temperature  
Mean Temperature 51 °F -  
Max Temperature 69 °F 67 °F 80 °F (2000)
Min Temperature 33 °F 33 °F 28 °F (1999)
Degree Days  
Heating Degree Days 14    
Growing Degree Days 1 (Base 50)    
Moisture  
Dew Point 23 °F    
Average Humidity 35    
Maximum Humidity 60    
Minimum Humidity 15    
Precipitation  
Precipitation 0.00 in - - ()
Sea Level Pressure  
Sea Level Pressure 30.02 in    
Wind  
Wind Speed 6 mph (WSW)    
Max Wind Speed 21 mph    
Max Gust Speed 28 mph    
Visibility 10 miles    
Events      
Averages and records for this station are not official NWS values.
T = Trace of Precipitation, MM = Missing Value Source: NWS Daily Summary

Daily Weather History Graph

Daily Weather History Graph

Search for Another Location

Airport:

Trip Planner

Search our weather history database for the weather conditions in past years. The results will help you decide how hot, cold, wet, or windy it might be!

Date:

Astronomy

Oct. 03, 2013 Rise Set
Actual Time 6:59 AM MDT 6:42 PM MDT
Civil Twilight 6:34 AM MDT 7:08 PM MDT
Nautical Twilight 6:04 AM MDT 7:38 PM MDT
Astronomical Twilight 5:34 AM MDT 8:08 PM MDT
Moon 5:37 AM MDT (10/3) 5:52 PM MDT (10/3)
Length of Visible Light 12h 34m
Length of Day
11h 43m
Waning Crescent, 2% of the Moon is Illuminated
Oct 3
Waning Crescent
Oct 4
New
Oct 11
First Quarter
Oct 18
Full
Oct 26
Last Quarter

Hourly Weather History & Observations

Time (MDT) Temp. Windchill Dew Point Humidity Pressure Visibility Wind Dir Wind Speed Gust Speed Precip Events Conditions
12:15 AM 42.8 °F - 23.0 °F 46% 30.11 in 10.0 mi Calm Calm - N/A   Clear
12:35 AM 42.8 °F 40.1 °F 21.2 °F 42% 30.10 in 10.0 mi North 4.6 mph - N/A   Clear
12:55 AM 41.0 °F - 23.0 °F 49% 30.10 in 10.0 mi Calm Calm - N/A   Clear
1:15 AM 42.8 °F 40.1 °F 23.0 °F 46% 30.10 in 10.0 mi NE 4.6 mph - N/A   Clear
1:35 AM 42.8 °F 40.1 °F 23.0 °F 46% 30.10 in 10.0 mi ENE 4.6 mph - N/A   Clear
1:55 AM 41.0 °F 39.0 °F 23.0 °F 49% 30.09 in 10.0 mi East 3.5 mph - N/A   Clear
2:15 AM 39.2 °F - 21.2 °F 49% 30.09 in 10.0 mi Calm Calm - N/A   Clear
2:35 AM 37.4 °F 32.1 °F 21.2 °F 52% 30.09 in 10.0 mi North 6.9 mph - N/A   Clear
2:55 AM 35.6 °F 29.9 °F 21.2 °F 56% 30.08 in 10.0 mi NNE 6.9 mph - N/A   Clear
3:15 AM 35.6 °F 31.7 °F 21.2 °F 56% 30.08 in 10.0 mi North 4.6 mph - N/A   Clear
3:35 AM 35.6 °F 30.7 °F 21.2 °F 56% 30.07 in 10.0 mi North 5.8 mph - N/A   Clear
3:55 AM 37.4 °F 33.8 °F 21.2 °F 52% 30.08 in 10.0 mi NNE 4.6 mph - N/A   Clear
4:15 AM 35.6 °F 32.8 °F 21.2 °F 56% 30.07 in 10.0 mi North 3.5 mph - N/A   Clear
4:35 AM 35.6 °F - 21.2 °F 56% 30.07 in 10.0 mi Calm Calm - N/A   Clear
4:55 AM 35.6 °F 30.7 °F 21.2 °F 56% 30.08 in 10.0 mi NNW 5.8 mph - N/A   Clear
5:15 AM 35.6 °F 31.7 °F 21.2 °F 56% 30.08 in 10.0 mi NNE 4.6 mph - N/A   Clear
5:35 AM 35.6 °F - 23.0 °F 60% 30.09 in 10.0 mi Calm Calm - N/A   Clear
5:55 AM 35.6 °F 29.9 °F 21.2 °F 56% 30.08 in 10.0 mi ESE 6.9 mph - N/A   Clear
6:15 AM 35.6 °F 29.2 °F 23.0 °F 60% 30.08 in 10.0 mi ESE 8.1 mph - N/A   Clear
6:35 AM 35.6 °F 28.6 °F 23.0 °F 60% 30.08 in 10.0 mi East 9.2 mph - N/A   Clear
6:55 AM 33.8 °F 29.6 °F 21.2 °F 60% 30.08 in 10.0 mi North 4.6 mph - N/A   Clear
7:15 AM 33.8 °F 29.6 °F 21.2 °F 60% 30.08 in 10.0 mi North 4.6 mph - N/A   Clear
7:35 AM 35.6 °F 32.8 °F 21.2 °F 56% 30.08 in 10.0 mi North 3.5 mph - N/A   Clear
7:55 AM 39.2 °F - 21.2 °F 49% 30.08 in 10.0 mi Calm Calm - N/A   Clear
8:15 AM 42.8 °F - 24.8 °F 49% 30.09 in 10.0 mi Calm Calm - N/A   Clear
8:35 AM 46.4 °F - 26.6 °F 46% 30.09 in 10.0 mi Calm Calm - N/A   Clear
8:55 AM 51.8 °F - 26.6 °F 38% 30.09 in 10.0 mi SSE 5.8 mph - N/A   Clear
9:15 AM 55.4 °F - 26.6 °F 33% 30.09 in 10.0 mi South 6.9 mph - N/A   Clear
9:35 AM 55.4 °F - 30.2 °F 38% 30.09 in 10.0 mi SSW 6.9 mph - N/A   Clear
9:55 AM 57.2 °F - 28.4 °F 33% 30.09 in 10.0 mi WSW 11.5 mph - N/A   Clear
10:15 AM 59.0 °F - 30.2 °F 34% 30.08 in 10.0 mi SSW 12.7 mph - N/A   Clear
10:35 AM 60.8 °F - 30.2 °F 31% 30.08 in 10.0 mi SW 9.2 mph - N/A   Clear
10:55 AM 60.8 °F - 28.4 °F 29% 30.07 in 10.0 mi SW 10.4 mph 18.4 mph N/A   Clear
11:15 AM 62.6 °F - 26.6 °F 26% 30.06 in 10.0 mi WSW 10.4 mph 17.3 mph N/A   Clear
11:35 AM 62.6 °F - 24.8 °F 24% 30.05 in 10.0 mi SW 15.0 mph 23.0 mph N/A   Clear
11:55 AM 64.4 °F - 19.4 °F 18% 30.04 in 10.0 mi WSW 12.7 mph 26.5 mph N/A   Clear
12:15 PM 64.4 °F - 19.4 °F 18% 30.03 in 10.0 mi SSW 13.8 mph - N/A   Clear
12:35 PM 64.4 °F - 19.4 °F 18% 30.03 in 10.0 mi West 13.8 mph 19.6 mph N/A   Clear
12:55 PM 66.2 °F - 19.4 °F 17% 30.02 in 10.0 mi WSW 15.0 mph 25.3 mph N/A   Clear
1:15 PM 66.2 °F - 19.4 °F 17% 30.01 in 10.0 mi SW 20.7 mph 27.6 mph N/A   Clear
1:35 PM 66.2 °F - 21.2 °F 18% 30.00 in 5.0 mi WSW 12.7 mph 24.2 mph N/A   Clear
1:55 PM 66.2 °F - 21.2 °F 18% 29.99 in 5.0 mi WSW 13.8 mph 20.7 mph N/A   Clear
2:15 PM 66.2 °F - 23.0 °F 19% 29.97 in 10.0 mi WSW 13.8 mph 21.9 mph N/A   Clear
2:35 PM 68.0 °F - 23.0 °F 18% 29.97 in 9.0 mi WSW 16.1 mph 26.5 mph N/A   Clear
2:55 PM 68.0 °F - 23.0 °F 18% 29.96 in 10.0 mi SW 17.3 mph 25.3 mph N/A   Clear
3:15 PM 69.8 °F - 23.0 °F 17% 29.95 in 10.0 mi SW 17.3 mph 21.9 mph N/A   Clear
3:35 PM 69.8 °F - 23.0 °F 17% 29.95 in 10.0 mi SW 19.6 mph 23.0 mph N/A   Clear
3:55 PM 69.8 °F - 21.2 °F 16% 29.93 in 10.0 mi West 17.3 mph 24.2 mph N/A   Clear
4:15 PM 69.8 °F - 19.4 °F 15% 29.93 in 10.0 mi WSW 16.1 mph 25.3 mph N/A   Clear
4:35 PM 69.8 °F - 19.4 °F 15% 29.92 in 10.0 mi West 17.3 mph 24.2 mph N/A   Clear
4:55 PM 69.8 °F - 19.4 °F 15% 29.92 in 10.0 mi West 16.1 mph 23.0 mph N/A   Clear
5:15 PM 69.8 °F - 19.4 °F 15% 29.92 in 10.0 mi West 19.6 mph 25.3 mph N/A   Clear
5:35 PM 68.0 °F - 21.2 °F 17% 29.91 in 10.0 mi West 17.3 mph 23.0 mph N/A   Clear
5:55 PM 66.2 °F - 21.2 °F 18% 29.91 in 10.0 mi WSW 13.8 mph - N/A   Clear
6:15 PM 66.2 °F - 21.2 °F 18% 29.92 in 10.0 mi SW 18.4 mph 24.2 mph N/A   Clear
6:35 PM 64.4 °F - 23.0 °F 21% 29.93 in 10.0 mi SW 10.4 mph - N/A   Clear
6:55 PM 62.6 °F - 24.8 °F 24% 29.93 in 10.0 mi SW 10.4 mph - N/A   Clear
7:15 PM 57.2 °F - 23.0 °F 27% 29.93 in 10.0 mi Calm Calm - N/A   Clear
7:35 PM 57.2 °F - 24.8 °F 29% 29.93 in 10.0 mi Calm Calm - N/A   Clear
7:55 PM 60.8 °F - 23.0 °F 23% 29.93 in 10.0 mi SW 3.5 mph - N/A   Clear
8:15 PM 55.4 °F - 21.2 °F 26% 29.94 in 10.0 mi South 4.6 mph - N/A   Clear
8:35 PM 57.2 °F - 23.0 °F 27% 29.94 in 10.0 mi SW 4.6 mph - N/A   Clear
8:55 PM 57.2 °F - 21.2 °F 25% 29.94 in 10.0 mi WSW 4.6 mph - N/A   Clear
9:15 PM 48.2 °F - 23.0 °F 37% 29.94 in 10.0 mi SE 3.5 mph - N/A   Clear
9:35 PM 48.2 °F - 24.8 °F 40% 29.95 in 10.0 mi SE 4.6 mph - N/A   Clear
10:35 PM 53.6 °F - 23.0 °F 30% 29.95 in 10.0 mi Calm Calm - N/A   Clear
10:55 PM 48.2 °F - 21.2 °F 34% 29.95 in 10.0 mi Calm Calm - N/A   Clear
11:15 PM 50.0 °F - 21.2 °F 32% 29.95 in 10.0 mi North 4.6 mph - N/A   Clear
11:35 PM 50.0 °F - 23.0 °F 35% 29.95 in 10.0 mi Calm Calm - N/A   Clear
11:55 PM 50.0 °F - 23.0 °F 35% 29.95 in 10.0 mi SW 10.4 mph - N/A   Clear